Regional Weather Roundup
Issued by NWS Portland, ME

Current Version | Previous Version | Text Only | Print | Product List | Glossary Off
Versions: 1 2 3 4 5 6 7 8 9 10 11 12 13 14 15 16 17 18 19 20 21 22 23 24 25 26 27 28 29 30 31 32 33 34 35 36 37 38 39 40 41 42 43 44 45 46 47 48 49 50
000 ASUS41 KGYX 152105 RWRGYX WEATHER ROUNDUP FOR MAINE AND NEW HAMPSHIRE NATIONAL WEATHER SERVICE GRAY ME 400 PM EST FRI DEC 15 2017 MEZ002-005-006-010-012-015-018-020-021-024-026-027-029-152200- MAINE CITY SKY/WX TMP DP RH WIND PRES REMARKS PORTLAND CLOUDY 22 9 57 CALM 29.96F SANFORD CLOUDY 23 9 55 CALM 29.94F BAR HARBOR PTCLDY 22 8 55 CALM 29.97S WISCASSET PTCLDY 21 11 65 CALM 29.97F ROCKLAND CLOUDY 22 8 55 CALM 29.96F FRYEBURG PTCLDY 21 3 45 CALM 29.92F LEWISTONAUBURN CLOUDY 17 7 64 S3 29.94F AUGUSTA PTCLDY 19 4 51 S3 29.94F WATERVILLE PTCLDY 19 2 47 CALM 29.89F BANGOR MOCLDY 15 11 83 CALM 29.95F GREENVILLE N/A 13 3 64 S3 29.80S MILLINOCKET CLEAR 17 5 59 CALM 29.92S HOULTON CLEAR 15 4 61 SW8 29.87S PRESQUE ISLE CLEAR 11 1 64 W3 29.87R FRENCHVILLE CLEAR 6 -2 69 SW6 29.77S CARIBOU CLEAR 11 -1 58 SW8 29.83R $$ NHZ002-005-008-009-011-012-014-152200- NEW HAMPSHIRE CITY SKY/WX TMP DP RH WIND PRES REMARKS PORTSMOUTH CLOUDY 24 10 55 CALM 29.94F ROCHESTER CLOUDY 24 9 52 CALM 29.93F NASHUA CLOUDY 24 13 62 CALM 29.94F MANCHESTER CLOUDY 24 11 57 SE5 29.92F CONCORD CLOUDY 23 8 52 CALM 29.93F LACONIA CLOUDY 21 7 54 SW6 29.91F PLYMOUTH CLOUDY 22 8 54 CALM 29.91F BERLIN CLOUDY 17 6 62 N3 29.84F WHITEFIELD CLOUDY 19 8 62 CALM 29.84F JAFFREY CLOUDY 21 13 71 SW3 29.87F KEENE CLOUDY 21 14 74 CALM 29.91F LEBANON CLOUDY 19 10 68 CALM 29.89F MT WASHINGTON NOT AVBL $$ VTZ005-007-008-152200- VERMONT CITY SKY/WX TMP DP RH WIND PRES REMARKS ST JOHNSBURY N/A 17 8 67 MISG 29.86F MONTPELIER CLOUDY 18 9 68 S8 29.86F BURLINGTON CLOUDY 22 10 60 S10 29.87F WCI 11 $$ MAZ007-012-024-CTZ003-RIZ002-NYZ038-NYZ072-152200- SOUTHERN NEW ENGLAND AND NY CITY SKY/WX TMP DP RH WIND PRES REMARKS BOSTON CLOUDY 26 13 57 SW6 29.96F WORCESTER CLOUDY 21 10 62 S3 29.87F NANTUCKET CLOUDY 31 24 75 E6 29.93F PROVIDENCE CLOUDY 25 14 63 NE3 29.95F HARTFORD CLOUDY 23 11 60 E6 29.92F ALBANY CLOUDY 22 9 57 S7 29.91F NEW YORK CITY LGT SNOW 26 22 84 NW9 29.92F VSB 1 $$ ANZ081-ANZ082-ANZ150-NHZ014-MEZ023>029-152200- COASTAL MARINE OBSERVATIONS STATION/POSITION TIME TEMP WIND PRES WAVE AIR SEA DIR/SP/G HT/PER (UTC) (F) (DEG/KT/KT) (MB) (FT/S) MOUNT DESERT ROC 2100 30 270/ 8/ 12 1014.3F MATINICUS ROCK 2000 28 260/ 11/ 13 1014.1S ISLE OF SHOALS 2000 25 250/ 4/ 5 1014.8F JEFFREYS LEDGE 2036 48 N/A 2/11 GEORGES BANK BUO 1950 38 50 1016.3 9/10 $$ .............KEY.............. WCI - WIND CHILL TC - TEMPERATURE IN CELSIUS VSB - VISIBILITY IN MILES HX - HEAT INDEX FAIR- INDICATES FEW OR NO CLOUDS BELOW 12,000 FT, WITH NO SIGNIFICANT WEATHER AND/OR OBSTRUCTIONS TO VISIBILITY.

USA.gov is the U.S. government's official web portal to all federal, state and local government web resources and services.